FW0639 Weather Reports


time (UTC)temp
C
wind
direction
speed
KPH
gust
KPH
rain 1hr
cm
rain 24hr
cm
rain mn
cm
humidity
%
barometer
mb
20260906180315 17 337 0.0 6.4 0.00 0.00 0.00 78 1012.5
20260906175312 16 337 1.6 4.8 0.00 0.00 0.00 80 1012.7
20260906174252 15 215 0.0 4.8 0.00 0.00 0.00 81 1013.0
20260906173252 15 215 0.0 0.0 0.00 0.00 0.00 82 1013.2
20260906171040 15 216 0.0 0.0 0.00 0.00 0.00 83 1013.6
20260906170049 14 216 0.0 0.0 0.00 0.00 0.00 85 1013.7
20260906165105 14 216 0.0 0.0 0.00 0.00 0.00 84 1013.9
20260906164048 13 216 0.0 1.6 0.00 0.00 0.00 85 1014.1
20260906163112 13 216 0.0 0.0 0.00 0.00 0.00 86 1014.1
20260906162120 13 216 0.0 0.0 0.00 0.00 0.00 87 1014.2
20260906161133 13 216 0.0 0.0 0.00 0.00 0.00 88 1014.4
20260906160134 12 216 0.0 0.0 0.00 0.00 0.00 88 1014.5
20260906154032 12 216 0.0 0.0 0.00 0.00 0.00 89 1014.5
20260906153006 12 216 0.0 0.0 0.00 0.00 0.00 89 1014.6
20260906151955 12 217 0.0 0.0 0.00 0.00 0.00 89 1014.6
20260906151003 11 217 0.0 0.0 0.00 0.00 0.00 89 1014.7
20260906145929 11 217 0.0 0.0 0.00 0.00 0.00 89 1014.8
20260906144947 11 217 0.0 4.8 0.00 0.00 0.00 88 1015.0
20260906141730 11 217 0.0 6.4 0.00 0.00 0.00 84 1015.4
20260906140749 11 217 0.0 6.4 0.00 0.00 0.00 84 1015.4
20260906135727 11 217 0.0 6.4 0.00 0.00 0.00 86 1015.1
20260906134729 11 217 0.0 3.2 0.00 0.00 0.00 87 1014.7
20260906133728 11 217 0.0 0.0 0.00 0.00 0.00 87 1014.6
20260906132723 11 217 0.0 0.0 0.00 0.00 0.00 88 1014.6
20260906131720 10 217 0.0 0.0 0.00 0.00 0.00 88 1014.3
20260906130737 10 217 0.0 0.0 0.00 0.00 0.00 88 1014.1
20260906124705 10 217 0.0 0.0 0.00 0.00 0.00 88 1014.1
20260906123630 10 217 0.0 0.0 0.00 0.00 0.00 88 1013.8
20260906121510 10 217 0.0 0.0 0.00 0.00 0.00 87 1014.2
20260906120507 10 217 0.0 0.0 0.00 0.00 0.00 87 1014.0
20260906115455 10 217 0.0 0.0 0.00 0.00 0.00 87 1014.0
20260906114422 10 217 0.0 0.0 0.00 0.00 0.00 87 1014.0
20260906113409 10 19 0.0 0.0 0.00 0.00 0.00 87 1014.0
20260906112427 10 21 0.0 0.0 0.00 0.00 0.00 87 1014.1
20260906111403 10 20 0.0 0.0 0.00 0.00 0.00 87 1014.3
20260906110402 10 20 0.0 0.0 0.00 0.00 0.00 87 1014.2
20260906103136 11 9 0.0 0.0 0.00 0.00 0.00 86 1013.9
20260906102148 11 9 0.0 0.0 0.00 0.00 0.00 85 1013.8
20260906101154 11 3 0.0 0.0 0.00 0.00 0.00 85 1013.6
20260906100154 11 2 0.0 0.0 0.00 0.00 0.00 85 1014.0
20260906095135 11 5 0.0 0.0 0.00 0.00 0.00 85 1013.9
20260906094152 11 0 0.0 0.0 0.00 0.00 0.00 85 1013.2
20260906093123 12 357 0.0 0.0 0.00 0.00 0.00 83 1013.6
20260906092100 12 353 0.0 0.0 0.00 0.00 0.00 82 1013.7
20260906085959 12 350 0.0 0.0 0.00 0.00 0.00 81 1013.5
20260906085001 13 350 0.0 0.0 0.00 0.00 0.00 80 1013.7
20260906083930 13 347 0.0 0.0 0.00 0.00 0.00 79 1013.8
20260906082940 13 346 0.0 0.0 0.00 0.00 0.00 79 1014.0
20260906082002 13 347 0.0 0.0 0.00 0.00 0.00 79 1014.1
20260906080952 13 347 0.0 0.0 0.00 0.00 0.00 77 1014.2
20260906075954 13 345 0.0 0.0 0.00 0.00 0.00 76 1014.3
20260906075014 13 344 0.0 0.0 0.00 0.00 0.00 75 1014.5
20260906073943 14 344 0.0 0.0 0.00 0.00 0.00 75 1014.6
20260906073000 14 343 0.0 0.0 0.00 0.00 0.00 73 1014.5
20260906071927 15 342 0.0 0.0 0.00 0.00 0.00 71 1014.6
20260906065820 15 342 0.0 0.0 0.00 0.00 0.00 70 1014.6
20260906064807 15 342 0.0 4.8 0.00 0.00 0.00 70 1014.5
20260906063811 15 341 1.6 3.2 0.00 0.00 0.00 67 1014.3
20260906062740 15 342 0.0 3.2 0.00 0.00 0.00 66 1014.5
20260906061754 15 342 0.0 9.7 0.00 0.00 0.00 65 1014.4
20260906060733 15 342 0.0 9.7 0.00 0.00 0.00 65 1014.4
20260906054623 15 341 0.0 0.0 0.00 0.00 0.00 65 1014.4
20260906052514 15 344 0.0 6.4 0.00 0.00 0.00 65 1014.5
20260906051510 15 343 0.0 0.0 0.00 0.00 0.00 65 1014.4
20260906050506 15 342 0.0 0.0 0.00 0.00 0.00 64 1014.5
20260906045509 16 342 0.0 0.0 0.00 0.00 0.00 61 1014.4
20260906043348 16 338 0.0 6.4 0.00 0.00 0.00 57 1014.3
20260906042404 16 338 0.0 6.4 0.00 0.00 0.00 56 1014.2
20260906041405 17 338 0.0 0.0 0.00 0.00 0.00 54 1014.2
20260906040401 17 339 0.0 1.6 0.00 0.00 0.00 53 1014.1
20260906035424 17 338 0.0 0.0 0.00 0.00 0.00 51 1014.1
20260906034438 18 338 0.0 6.4 0.00 0.00 0.00 50 1013.9
20260906033407 18 338 1.6 6.4 0.00 0.00 0.00 48 1013.8
20260906032403 18 339 0.0 4.8 0.00 0.00 0.00 49 1013.8
20260906031407 18 338 0.0 3.2 0.00 0.00 0.00 49 1013.8
20260906030345 18 338 0.0 0.0 0.00 0.00 0.00 48 1013.5
20260906025408 18 339 0.0 3.2 0.00 0.00 0.00 48 1013.4
20260906024419 18 338 0.0 0.0 0.00 0.00 0.00 49 1013.4
20260906023411 18 339 0.0 0.0 0.00 0.00 0.00 49 1013.2
20260906022350 18 339 0.0 0.0 0.00 0.00 0.00 47 1013.2
20260906021407 18 339 0.0 0.0 0.00 0.00 0.00 46 1013.1
20260906020408 19 339 0.0 0.0 0.00 0.00 0.00 44 1013.0
20260906014241 21 338 0.0 0.0 0.00 0.00 0.00 41 1012.8
20260906013222 21 338 0.0 0.0 0.00 0.00 0.00 40 1012.8
20260906012204 22 338 0.0 0.0 0.00 0.00 0.00 37 1012.6
20260906010023 23 338 0.0 3.2 0.00 0.00 0.00 39 1012.7
20260906003828 23 338 0.0 3.2 0.00 0.00 0.00 39 1012.6
20260906002804 23 338 0.0 4.8 0.00 0.00 0.00 38 1012.5
20260906001823 23 338 0.0 4.8 0.00 0.00 0.00 40 1012.5
20260906000758 23 338 0.0 11.3 0.00 0.00 0.00 39 1012.5
20260905235734 23 338 0.0 3.2 0.00 0.00 0.00 39 1012.5
20260905234708 23 339 0.0 0.0 0.00 0.00 0.00 39 1012.4
20260905233720 23 232 0.0 11.3 0.00 0.00 0.00 40 1012.4
20260905232729 23 106 1.6 8.0 0.00 0.00 0.00 40 1012.2
20260905231729 23 92 0.0 3.2 0.00 0.00 0.00 40 1012.4
20260905230732 24 86 0.0 9.7 0.00 0.00 0.00 40 1012.4
20260905225744 23 97 0.0 0.0 0.00 0.00 0.00 41 1012.5
20260905224736 23 228 1.6 12.9 0.00 0.00 0.00 40 1012.5
20260905223716 24 222 0.0 4.8 0.00 0.00 0.00 40 1012.6
20260905222705 24 211 0.0 6.4 0.00 0.00 0.00 43 1012.5
20260905221652 23 211 0.0 6.4 0.00 0.00 0.00 41 1012.6
20260905215548 23 34 0.0 1.6 0.00 0.00 0.00 40 1012.6
20260905214604 23 20 0.0 1.6 0.00 0.00 0.00 42 1012.7
20260905213620 23 13 1.6 11.3 0.00 0.00 0.00 42 1012.8
20260905212600 24 30 1.6 11.3 0.00 0.00 0.00 39 1012.9
20260905211544 23 30 0.0 8.0 0.00 0.00 0.00 42 1013.1
20260905210603 23 60 0.0 8.0 0.00 0.00 0.00 41 1013.4
20260905205621 23 19 1.6 8.0 0.00 0.00 0.00 42 1013.5
20260905204617 23 41 0.0 4.8 0.00 0.00 0.00 42 1013.6
20260905202540 22 14 0.0 4.8 0.00 0.00 0.00 44 1013.8
20260905201556 22 5 1.6 9.7 0.00 0.00 0.00 46 1013.9
20260905200553 22 346 0.0 9.7 0.00 0.00 0.00 45 1014.1
20260905195612 22 345 1.6 8.0 0.00 0.00 0.00 46 1014.0
20260905194541 21 339 0.0 4.8 0.00 0.00 0.00 47 1014.1
20260905193555 21 339 1.6 0.0 0.00 0.00 0.00 48 1014.1
20260905192525 20 340 1.6 9.7 0.00 0.00 0.00 46 1014.3
20260905185246 20 350 0.0 0.0 0.00 0.00 0.00 49 1014.6
20260905184213 20 342 0.0 6.4 0.00 0.00 0.00 49 1014.6
20260905183237 20 340 0.0 3.2 0.00 0.00 0.00 49 1014.7
20260905182221 20 342 1.6 4.8 0.00 0.00 0.00 50 1014.7